Weather History for Stockton, CA

Change the Weather History Date:

Friday, July 19, 2013

  Actual Average Record
Temperature  
Mean Temperature 78 °F -  
Max Temperature 99 °F 94 °F 111 °F (1960)
Min Temperature 57 °F 60 °F 52 °F (1987)
Degree Days  
Heating Degree Days 0 0  
Month to date heating degree days 0 0  
Since 1 June heating degree days 0 7  
Since 1 July heating degree days 0 0  
Cooling Degree Days 13 12  
Month to date cooling degree days 244 220  
Year to date cooling degree days 706 569  
Since 1 June cooling degree days 525 450  
Growing Degree Days 28 (Base 50)    
Moisture  
Dew Point 50 °F    
Average Humidity 46    
Maximum Humidity 78    
Minimum Humidity 13    
Precipitation  
Precipitation 0.00 in 0.00 in 0.04 in (1985)
Month to date precipitation 0.00 0.00  
Year to date precipitation 2.88 9.03  
Since 1 July precipitation 0.00 0.00  
Snow  
Snow 0.00 in - - ()
Month to date snowfall 0.0  
Since 1 June snowfall 0.0  
Since 1 July snowfall 0.0  
Snow Depth -    
Sea Level Pressure  
Sea Level Pressure 29.83 in    
Wind  
Wind Speed 6 mph (NW)    
Max Wind Speed 12 mph    
Max Gust Speed 18 mph    
Visibility 10 miles    
Events      
T = Trace of Precipitation, MM = Missing Value Source: NWS Daily Summary

Daily Weather History Graph

Daily Weather History Graph

Search for Another Location

Airport:

Trip Planner

Search our weather history database for the weather conditions in past years. The results will help you decide how hot, cold, wet, or windy it might be!

Date:

Astronomy

Jul. 19, 2013 Rise Set
Actual Time 5:57 AM PDT 8:24 PM PDT
Civil Twilight 5:27 AM PDT 8:54 PM PDT
Nautical Twilight 4:50 AM PDT 9:31 PM PDT
Astronomical Twilight 4:09 AM PDT 10:12 PM PDT
Moon 5:32 PM PDT (7/19) 2:43 AM PDT (7/19)
Length of Visible Light 15h 26m
Length of Day
14h 26m
Waxing Gibbous, 87% of the Moon is Illuminated
Jul 19
Waxing Gibbous
Jul 22
Full
Jul 29
Last Quarter
Aug 6
New
Aug 14
First Quarter

Hourly Weather History & Observations

Time (PDT) Temp. Heat Index Dew Point Humidity Pressure Visibility Wind Dir Wind Speed Gust Speed Precip Events Conditions
12:55 AM 66.0 °F - 46.9 °F 50% 29.88 in 10.0 mi North 4.6 mph - N/A   Clear
1:55 AM 64.0 °F - 46.9 °F 54% 29.87 in 10.0 mi North 3.5 mph - N/A   Clear
2:55 AM 64.9 °F - 52.0 °F 63% 29.87 in 10.0 mi NNW 4.6 mph - N/A   Clear
3:55 AM 62.1 °F - 51.1 °F 67% 29.87 in 10.0 mi Calm Calm - N/A   Clear
4:55 AM 60.1 °F - 52.0 °F 75% 29.87 in 10.0 mi Calm Calm - N/A   Clear
5:55 AM 59.0 °F - 52.0 °F 78% 29.88 in 10.0 mi WNW 3.5 mph - N/A   Clear
6:55 AM 62.1 °F - 55.0 °F 78% 29.89 in 10.0 mi WNW 5.8 mph - N/A   Clear
7:55 AM 66.0 °F - 54.0 °F 65% 29.89 in 10.0 mi NNW 4.6 mph - N/A   Clear
8:55 AM 71.1 °F - 54.0 °F 55% 29.90 in 10.0 mi Variable 4.6 mph - N/A   Clear
9:55 AM 75.9 °F - 52.0 °F 43% 29.89 in 10.0 mi NW 8.1 mph - N/A   Clear
10:55 AM 81.0 °F 80.5 °F 54.0 °F 39% 29.89 in 10.0 mi NW 8.1 mph - N/A   Clear
11:55 AM 84.0 °F 82.9 °F 55.0 °F 37% 29.87 in 10.0 mi NW 10.4 mph - N/A   Clear
12:55 PM 87.1 °F 85.1 °F 54.0 °F 32% 29.86 in 10.0 mi WNW 10.4 mph - N/A   Clear
1:55 PM 93.0 °F - 50.0 °F 23% 29.83 in 10.0 mi NW 8.1 mph - N/A   Clear
2:55 PM 95.0 °F - 46.9 °F 19% 29.81 in 10.0 mi WNW 5.8 mph - N/A   Clear
3:55 PM 97.0 °F - 43.0 °F 16% 29.79 in 10.0 mi NW 10.4 mph - N/A   Clear
4:55 PM 99.0 °F - 39.0 °F 13% 29.77 in 10.0 mi NW 10.4 mph - N/A   Clear
5:55 PM 98.1 °F - 42.1 °F 15% 29.75 in 10.0 mi WNW 13.8 mph - N/A   Clear
6:55 PM 95.0 °F - 51.1 °F 22% 29.75 in 10.0 mi NW 11.5 mph - N/A   Clear
7:55 PM 87.1 °F 85.9 °F 57.0 °F 36% 29.76 in 10.0 mi WNW 12.7 mph - N/A   Clear
8:55 PM 82.0 °F 81.7 °F 57.0 °F 42% 29.77 in 10.0 mi WNW 6.9 mph - N/A   Clear
9:55 PM 79.0 °F - 51.1 °F 38% 29.78 in 10.0 mi West 9.2 mph - N/A   Clear
10:55 PM 75.9 °F - 50.0 °F 40% 29.78 in 10.0 mi WNW 5.8 mph - N/A   Clear
11:55 PM 72.0 °F - 50.0 °F 46% 29.78 in 10.0 mi North 4.6 mph - N/A   Clear